Voltar ao catálogo

STARLINK-34706

AtivoComunicaçõesSSO
NORAD 64845·PAYLOAD·🇺🇸 United States

Lançado Jul 19, 2025 de Vandenberg Space Force Base

Loading…

Próximas Passagens (próximas 24 horas)

TLE

AtualizadoSource: CelesTrak SupGP

Época: Sep 14, 2026, 23:14 UTC

1 64845C 25152D   26257.96854167  .00086295  00000+0  26783-2 0  2574
2 64845  97.2844 108.5559 0001668  96.6888 245.1889 15.33400421    13

Acompanhe STARLINK-34706 em tempo real com AllMySat

Download on the App Store